This is the latest recevied weather packets stored in our database for station/object DG9VH-13. If no packets are shown the sender has not sent any weather packets the latest 10 day(s).
| Time | Temp. | Humidity | Pressure | Rain* | Wind** | Luminosity | Snow |
|---|---|---|---|---|---|---|---|
| 1788510601 | 28.89° C | 48% | 1000.4 hPa | - | - | - | - |
| 1788510001 | 30.56° C | 45% | - | - | - | - | - |
| 1788509401 | 35° C | 38% | - | - | - | - | - |
| 1788508801 | 31.67° C | 43% | 1002.6 hPa | - | - | - | - |
| 1788508201 | 36.67° C | 36% | 1006.2 hPa | - | - | - | - |
| 1788507600 | 38.33° C | 34% | 1013 hPa | - | - | - | - |
| 1788507000 | 37.78° C | 35% | 1008.7 hPa | - | - | - | - |
| 1788506401 | 36.67° C | 36% | 1007.7 hPa | - | - | - | - |
| 1788505801 | 33.89° C | 40% | 1008.7 hPa | - | - | - | - |
| 1788504600 | 31.67° C | 43% | 1012.3 hPa | - | - | - | - |
| 1788504001 | 30° C | 46% | 1005.8 hPa | - | - | - | - |
| 1788503402 | 28.89° C | 49% | - | - | - | - | - |
| 1788502802 | 25° C | 60% | - | - | - | - | - |
| 1788502200 | 20° C | 73% | 1001 hPa | - | - | - | - |
| 1788501602 | 19.44° C | 75% | 1001.1 hPa | - | - | - | - |
| 1788501001 | 18.89° C | 75% | 1001.1 hPa | - | - | - | - |
| 1788500401 | 18.89° C | 76% | 1001.2 hPa | - | - | - | - |
| 1788499802 | 18.89° C | 77% | 1001.1 hPa | - | - | - | - |
| 1788499201 | 18.33° C | 77% | 1001.2 hPa | - | - | - | - |
| 1788498601 | 18.89° C | 77% | 1001.2 hPa | - | - | - | - |
| 1788498001 | 18.89° C | 76% | 1001.2 hPa | - | - | - | - |
| 1788497402 | 18.89° C | 76% | 1001.2 hPa | - | - | - | - |
| 1788496801 | 18.89° C | 76% | 1001 hPa | - | - | - | - |
| 1788496202 | 18.89° C | 75% | 1001.1 hPa | - | - | - | - |
| 1788495601 | 18.89° C | 76% | 1001.2 hPa | - | - | - | - |
* Rain since midnight (hover to see other rain measurements)
** Current wind speed in m/s (hover to see current wind gust speed)